Flag for Japan Weather past 2 weeks in Nagasaki, Japan

Now
61 °F

Passing clouds.


Feels Like: 61 °F
Forecast: 60 / 71 °F
Wind: 6 mph from Northeast

Location: Nagasaki

Current Time: Oct 23, 2014 at 6:55:25 AM

Latest Report: Oct 23, 2014 at 6:00 AM


Visibility: 13 mi

Pressure: 30.06 "Hg

Humidity: 66%

Dew point: 50 °F

Location of NagasakiLocation

Historic Weather in Nagasaki — Graph

°F

Nagasaki temperature yesterday

Maximum temperature yesterday: 73 °F (at 12:00 AM)
Minimum temperature yesterday: 64 °F (at 11:00 PM)
Average temperature yesterday: 69 °F

Past Weeks' High & Low Weather Summary

 TemperatureHumidityPressure
High85 °F (Oct 10, 3:00 PM)94% (Oct 21, 7:00 PM)30.25 "Hg (Oct 21, 7:00 PM)
Low53 °F (Oct 15, 6:00 AM)38% (Oct 15, 3:00 PM)29.15 "Hg (Oct 13, 9:00 AM)
Average69 °F67%30.01 "Hg
* Reported Oct 8 5:00 AM — Oct 23 5:00 AM, Nagasaki, Weather by CustomWeather, © 2014

Note: Actual official high and low records may vary slightly from our data, if they occured in-between our weather recording intervals... More about our weather records

Advertising

Nagasaki weather history for previous 24 hours

 ConditionsComfort  
Time TempWeatherWind HumidityBarometerVisibility
5:00 AM
Oct 23
62 °FCool.10 mph65%30.05 "HgN/A
4:00 AM62 °FCool.7 mph65%30.04 "HgN/A
3:00 AM62 °FPassing clouds.8 mph65%30.03 "Hg12 mi
2:00 AM63 °FMild.10 mph68%30.03 "HgN/A
1:00 AM63 °FMild.12 mph70%30.04 "HgN/A
12:00 AM64 °FMild.9 mph70%30.03 "HgN/A
11:00 PM
Oct 22
64 °FMild.9 mph70%30.03 "HgN/A
10:00 PM64 °FMild.8 mph73%30.02 "HgN/A
9:00 PM64 °FPassing clouds.9 mph70%30.00 "Hg16 mi
8:00 PM65 °FMild.7 mph69%29.97 "HgN/A
7:00 PM65 °FMild.10 mph70%29.95 "HgN/A
6:00 PM66 °FPassing clouds.10 mph67%29.92 "Hg16 mi
5:00 PM68 °FMild.13 mph65%29.89 "HgN/A
4:00 PM70 °FMild.17 mph66%29.87 "HgN/A
3:00 PM71 °FPartly sunny.13 mph67%29.84 "Hg16 mi
2:00 PM71 °FMild.15 mph68%29.83 "HgN/A
1:00 PM71 °FMild.13 mph72%29.83 "HgN/A
12:00 PM70 °FOvercast.12 mph75%29.84 "Hg16 mi
11:00 AM70 °FMild.10 mph80%29.85 "HgN/A
10:00 AM71 °FMild.6 mph89%29.85 "HgN/A
9:00 AM71 °FLow clouds.7 mph89%29.85 "Hg12 mi
8:00 AM72 °FMild.3 mph94%29.83 "HgN/A
7:00 AM70 °FMild.2 mph94%29.81 "HgN/A
6:00 AM69 °FSprinkles. Low clouds.2 mph94%29.81 "Hg9 mi
Weather by CustomWeather, © 2014

See weather overviewHow to use our weather pages